Live-Position
3D-Globus wird geladen...
Über Starlink 2674
Group: 3 satellites
Beschreibung wird geladen...
Nächste Überflüge
Passes for default location (London). Set your location on the main map for personalized predictions.
Höhenverlauf
Loading altitude history...
No altitude history available
Zweizeiliger Elementsatz
1 48354U 21038B 26122.97210897 .00012812 00000-0 42374-3 0 9991
2 48354 53.1595 105.8466 0001503 88.3252 271.7922 15.31712593275394
Epoch: 2. Mai 2026 •
Age: 7 hours
Aktueller Status
Höhe 475.9 km
Geschwindigkeit 7.63 km/s
Subsatellitenpunkt 51.93°N,
99.15°W
Startdatum 4. Mai 2021
Alter 4.9 years
Typ internet
Startgruppe
Falcon 9 •
Launch 25 •
46 satellites
Starlink 2613
48353
Starlink 2635 48355
Starlink 2637 48356
Starlink 2636 48357
Starlink 2624 48358
Starlink 2628 48359
Starlink 2622 48360
Starlink 2591 48361
Starlink 2578 48362
Starlink 2611 48364
Starlink 2608 48365
Starlink 2643 48367
Starlink 2623 48368
Starlink 2621 48370
Starlink 2589 48371
Starlink 2609 48373
Starlink 2604 48374
Starlink 2603 48375
Starlink 2610 48376
Starlink 2499 48377
...and 25 more
Technische Details
Klassifizierung Payload
Masse 260.00 kg
Trockenmasse 248.00 kg
Gesamtmasse 260.00 kg
Länge 0.20 m
Durchmesser 2.80 m
Spannweite 9.00 m
Form Box + pan
Hersteller SPXS
Bus-Typ Starlink
Phasenstatus In Orbit
Besitzer/Staat SPXS/US
Most Searched
Loading...